NI4CE-10 Weather Reports


time (UTC)temp
F
wind
direction
speed
knots
gust
knots
rain 1hr
in
rain 24hr
in
rain mn
in
humidity
%
barometer
mb
20260831134808 98 52 0.9 4.3 0.00 0.88 0.00 100 1019.0
20260831134308 95 71 1.7 4.3 0.00 0.88 0.00 100 1019.0
20260831133808 95 42 2.6 5.2 0.00 0.88 0.00 100 1018.9
20260831133308 94 60 0.9 2.6 0.00 0.88 0.00 100 1018.8
20260831132808 93 57 1.7 3.5 0.00 0.88 0.00 100 1018.8
20260831132308 93 68 1.7 4.3 0.00 0.88 0.00 100 1018.8
20260831131808 92 33 0.9 2.6 0.00 0.88 0.00 100 1018.8
20260831131308 92 12 0.0 2.6 0.00 0.88 0.00 100 1018.7
20260831131022 92 40 0.0 2.6 0.00 0.88 0.00 100 1018.6
20260831130808 92 40 0.0 2.6 0.00 0.88 0.00 100 1018.6
20260831130308 90 42 2.6 3.5 0.00 0.88 0.00 100 1018.6
20260831125808 88 75 0.9 3.5 0.00 0.88 0.00 100 1018.6
20260831125308 88 82 0.0 3.5 0.00 0.88 0.00 100 1018.6
20260831124808 86 75 2.6 3.5 0.00 0.88 0.00 100 1018.6
20260831124308 83 33 0.0 0.0 0.00 0.88 0.00 100 1018.6
20260831123809 79 33 0.0 0.0 0.00 0.88 0.00 100 1018.5
20260831123308 78 33 0.0 0.0 0.00 0.88 0.00 100 1018.5
20260831122808 78 33 0.0 2.6 0.00 0.88 0.00 100 1018.3
20260831122309 78 37 1.7 1.7 0.00 0.88 0.00 100 1018.4
20260831121809 77 53 0.0 0.0 0.00 0.88 0.00 100 1018.3
20260831121309 76 53 0.0 2.6 0.00 0.88 0.00 100 1018.2
20260831120809 76 73 0.0 0.0 0.00 0.88 0.00 100 1018.1
20260831120309 76 73 0.0 0.0 0.00 0.88 0.00 100 1018.0
20260831115809 75 73 0.0 0.9 0.00 0.88 0.00 100 1018.0
20260831115309 75 60 0.0 0.0 0.00 0.88 0.00 100 1017.9
20260831114809 75 60 0.0 0.0 0.00 0.88 0.00 100 1017.8
20260831114309 75 60 0.0 0.0 0.00 0.88 0.00 100 1017.8
20260831113809 74 60 0.0 2.6 0.00 0.88 0.00 100 1017.7
20260831113309 74 64 0.0 0.0 0.00 0.88 0.00 100 1017.7
20260831112809 74 64 0.0 2.6 0.00 0.88 0.00 100 1017.7
20260831112309 73 54 2.6 2.6 0.00 0.88 0.00 100 1017.5
20260831111809 73 56 0.0 0.0 0.00 0.88 0.00 100 1017.4
20260831111309 73 56 0.0 0.0 0.00 0.88 0.00 100 1017.3
20260831110809 73 56 0.0 0.0 0.00 0.88 0.00 100 1017.2
20260831110309 73 56 0.0 0.0 0.00 0.88 0.00 100 1017.2
20260831110025 73 56 0.0 0.0 0.00 0.88 0.00 100 1017.0
20260831105809 73 56 0.0 0.0 0.00 0.88 0.00 100 1017.0
20260831105309 73 56 0.0 0.0 0.00 0.88 0.00 100 1016.9
20260831104809 73 56 0.0 0.0 0.00 0.88 0.00 100 1017.0
20260831104309 73 56 0.0 0.0 0.00 0.88 0.00 100 1017.0
20260831103809 73 56 0.0 0.0 0.00 0.88 0.00 100 1016.9
20260831103309 73 56 0.0 0.0 0.00 0.88 0.00 100 1017.0
20260831102809 73 56 0.0 0.0 0.00 0.88 0.00 100 1016.9
20260831102309 73 56 0.0 0.0 0.00 0.88 0.00 100 1016.9
20260831101809 73 56 0.0 0.0 0.00 0.88 0.00 100 1017.0
20260831101309 73 56 0.0 0.0 0.00 0.88 0.00 100 1017.0
20260831100809 73 56 0.0 0.0 0.00 0.88 0.00 100 1017.0
20260831100309 73 56 0.0 0.0 0.00 0.88 0.00 100 1017.0
20260831095809 73 56 0.0 0.0 0.00 0.88 0.00 100 1017.1
20260831095309 73 56 0.0 0.0 0.00 0.88 0.00 100 1017.1
20260831094809 73 56 0.0 0.0 0.00 0.88 0.00 100 1017.0
20260831094628 73 56 0.0 0.0 0.00 0.88 0.00 100 1016.9
20260831094309 73 56 0.0 0.0 0.00 0.88 0.00 100 1016.9
20260831093810 74 56 0.0 0.0 0.00 0.88 0.00 100 1016.9
20260831093309 73 56 0.0 0.0 0.00 0.88 0.00 100 1016.9
20260831092810 74 56 0.0 0.0 0.00 0.88 0.00 100 1016.9
20260831092309 74 56 0.0 0.0 0.00 0.88 0.00 100 1016.9
20260831091809 74 56 0.0 0.0 0.00 0.88 0.00 100 1016.9
20260831091309 74 56 0.0 0.0 0.00 0.88 0.00 100 1016.9
20260831091215 74 56 0.0 0.0 0.00 0.88 0.00 100 1016.9
20260831090809 74 56 0.0 0.0 0.00 0.88 0.00 100 1016.9
20260831090309 74 56 0.0 0.0 0.00 0.88 0.00 100 1016.9
20260831090145 74 56 0.0 0.0 0.00 0.88 0.00 100 1017.0
20260831085809 74 56 0.0 0.0 0.00 0.88 0.00 100 1017.0
20260831085309 74 56 0.0 0.0 0.00 0.88 0.00 100 1017.0
20260831085138 74 56 0.0 0.0 0.00 0.88 0.00 100 1017.1
20260831084810 74 56 0.0 0.0 0.00 0.88 0.00 100 1017.1
20260831084512 74 56 0.0 0.0 0.00 0.88 0.00 100 1017.0
20260831084309 74 56 0.0 0.0 0.00 0.88 0.00 100 1017.0
20260831083811 74 56 0.0 0.0 0.00 0.88 0.00 100 1017.1
20260831083310 74 56 0.0 0.0 0.00 0.88 0.00 100 1017.1
20260831083040 74 56 0.0 0.0 0.00 0.88 0.00 100 1017.0
20260831082911 74 56 0.0 0.0 0.00 0.88 0.00 100 1017.0
20260831082810 74 56 0.0 0.0 0.00 0.88 0.00 100 1017.0
20260831082530 74 56 0.0 0.0 0.00 0.88 0.00 100 1017.0
20260831082458 74 56 0.0 0.0 0.00 0.88 0.00 100 1017.0
20260831082310 74 56 0.0 0.0 0.00 0.88 0.00 100 1017.0
20260831081810 74 56 0.0 0.0 0.00 0.88 0.00 100 1017.0
20260831081515 74 56 0.0 0.0 0.00 0.88 0.00 100 1017.0
20260831081310 74 56 0.0 0.0 0.00 0.88 0.00 100 1017.0
20260831080810 74 56 0.0 0.0 0.00 0.88 0.00 100 1017.1
20260831080310 74 56 0.0 0.0 0.00 0.88 0.00 100 1017.1
20260831075810 74 56 0.0 0.0 0.00 0.88 0.00 100 1017.1
20260831075310 74 56 0.0 0.0 0.00 0.88 0.00 100 1017.0
20260831074810 74 56 0.0 0.0 0.00 0.88 0.00 100 1017.1
20260831074310 74 56 0.0 0.0 0.00 0.88 0.00 100 1017.1
20260831074035 74 56 0.0 0.0 0.00 0.88 0.00 100 1017.1
20260831073810 74 56 0.0 0.0 0.00 0.88 0.00 100 1017.1
20260831073534 74 56 0.0 0.0 0.00 0.88 0.00 100 1017.1
20260831073310 74 56 0.0 0.0 0.00 0.88 0.00 100 1017.1
20260831073019 74 56 0.0 0.0 0.00 0.88 0.00 100 1017.2
20260831072810 74 56 0.0 0.0 0.00 0.88 0.00 100 1017.2
20260831072310 74 56 0.0 0.0 0.00 0.88 0.00 100 1017.2
20260831072038 74 56 0.0 0.0 0.00 0.88 0.00 100 1017.4
20260831071810 74 56 0.0 0.0 0.00 0.88 0.00 100 1017.4
20260831071310 74 56 0.0 0.0 0.00 0.88 0.00 100 1017.3
20260831070810 75 56 0.0 0.0 0.00 0.88 0.00 100 1017.3
20260831070310 75 56 0.0 0.0 0.00 0.88 0.00 100 1017.4
20260831065810 74 56 0.0 0.0 0.00 0.88 0.00 100 1017.3
20260831065310 74 56 0.0 0.0 0.00 0.88 0.00 100 1017.4
20260831064941 74 56 0.0 0.0 0.00 0.88 0.00 100 1017.5
20260831064810 74 56 0.0 0.0 0.00 0.88 0.00 100 1017.6
20260831064310 74 56 0.0 0.0 0.00 0.88 0.00 100 1017.5
20260831063810 74 56 0.0 0.0 0.00 0.88 0.00 100 1017.5
20260831063310 74 56 0.0 0.0 0.00 0.88 0.00 100 1017.5
20260831062933 74 56 0.0 0.0 0.00 0.88 0.00 100 1017.5
20260831062810 74 56 0.0 0.0 0.00 0.88 0.00 100 1017.5
20260831062310 74 56 0.0 0.0 0.00 0.88 0.00 100 1017.6
20260831061810 74 56 0.0 0.0 0.00 0.88 0.00 100 1017.7
20260831061310 74 56 0.0 0.0 0.00 0.88 0.00 100 1017.6
20260831060810 75 56 0.0 0.0 0.00 0.88 0.00 100 1017.7
20260831060310 75 56 0.0 0.0 0.00 0.88 0.00 100 1017.7
20260831055810 75 56 0.0 0.0 0.00 0.88 0.00 100 1017.7
20260831055310 75 56 0.0 0.0 0.00 0.88 0.00 100 1017.7
20260831054810 75 56 0.0 0.0 0.00 0.88 0.00 100 1017.7
20260831054310 75 56 0.0 0.0 0.00 0.88 0.00 100 1017.7
20260831053810 75 56 0.0 0.0 0.00 0.88 0.00 100 1017.6
20260831053311 75 56 0.0 0.0 0.00 0.88 0.00 100 1017.7
20260831052810 75 56 0.0 0.0 0.00 0.88 0.00 100 1017.7
20260831052310 75 56 0.0 0.0 0.00 0.88 0.00 100 1017.8
20260831051810 75 56 0.0 0.0 0.00 0.88 0.00 100 1017.9
20260831051310 75 56 0.0 0.0 0.00 0.88 0.00 100 1018.0
20260831050810 75 56 0.0 0.0 0.00 0.88 0.00 100 1018.1
20260831050310 75 56 0.0 0.0 0.00 0.88 0.00 100 1018.1
20260831045810 75 56 0.0 0.0 0.00 0.88 0.00 100 1018.2
20260831045310 75 56 0.0 0.0 0.00 0.88 0.88 100 1018.2
20260831044810 75 56 0.0 4.3 0.00 0.88 0.88 100 1018.2
20260831044310 75 88 0.0 4.3 0.00 0.88 0.88 100 1018.2
20260831043810 75 82 0.0 4.3 0.00 0.88 0.88 100 1018.2
20260831043311 75 85 0.9 3.5 0.00 0.88 0.88 100 1018.2
20260831042811 75 84 0.0 0.0 0.00 0.88 0.88 100 1018.3
20260831042311 75 84 0.0 0.0 0.00 0.88 0.88 100 1018.4
20260831041811 75 84 0.0 0.0 0.00 0.88 0.88 100 1018.5
20260831041311 75 84 0.0 0.0 0.00 0.88 0.88 100 1018.5
20260831040811 75 84 0.0 0.0 0.00 0.88 0.88 100 1018.6
20260831040311 75 84 0.0 0.0 0.00 0.88 0.88 100 1018.6
20260831035811 75 75 0.0 0.0 0.00 0.88 0.88 100 1018.6
20260831035311 75 75 0.0 2.6 0.00 0.88 0.88 100 1018.6
20260831034811 75 42 0.0 0.9 0.00 0.88 0.88 100 1018.6
20260831034311 75 50 0.0 5.2 0.00 0.88 0.88 100 1018.6
20260831033811 75 74 0.9 5.2 0.00 0.88 0.88 100 1018.6
20260831033311 75 85 0.0 5.2 0.00 0.88 0.88 100 1018.6
20260831032811 75 36 0.0 0.0 0.00 0.88 0.88 100 1018.6
20260831032311 75 36 0.0 0.0 0.00 0.88 0.88 100 1018.7
20260831031811 75 36 0.0 0.0 0.00 0.88 0.88 100 1018.6
20260831031311 75 36 0.0 3.5 0.00 0.88 0.88 100 1018.6
20260831030952 75 78 2.6 2.6 0.00 0.88 0.88 100 1018.6
20260831030811 75 78 2.6 2.6 0.00 0.88 0.88 100 1018.6
20260831030311 75 16 0.0 0.0 0.00 0.88 0.88 100 1018.6
20260831025811 75 16 0.0 0.0 0.00 0.88 0.88 100 1018.6
20260831025311 75 16 0.0 4.3 0.00 0.88 0.88 100 1018.6
20260831024811 75 32 3.5 3.5 0.00 0.88 0.88 100 1018.5
20260831024311 76 75 0.0 0.0 0.00 0.88 0.88 100 1018.6
20260831023811 76 75 0.0 2.6 0.00 0.88 0.88 100 1018.6
20260831023311 76 57 0.0 2.6 0.00 0.88 0.88 100 1018.6
20260831022811 76 33 1.7 2.6 0.00 0.88 0.88 100 1018.6
20260831022311 76 29 0.0 2.6 0.00 0.88 0.88 100 1018.7
20260831021811 76 68 0.0 0.0 0.00 0.88 0.88 100 1018.7
20260831021311 76 68 0.0 3.5 0.00 0.88 0.88 100 1018.7
20260831020811 76 46 0.0 2.6 0.00 0.88 0.88 100 1018.7
20260831020311 76 64 1.7 3.5 0.00 0.88 0.88 100 1018.7
20260831015811 76 29 0.0 4.3 0.00 0.88 0.88 100 1018.7
20260831015311 76 61 1.7 3.5 0.00 0.88 0.88 100 1018.7
20260831014811 76 53 0.0 0.0 0.00 0.88 0.88 100 1018.6
20260831014311 76 53 0.0 0.0 0.00 0.88 0.88 100 1018.6
20260831013811 76 53 0.0 0.0 0.00 0.88 0.88 100 1018.7
20260831013311 76 53 0.0 0.0 0.00 0.88 0.88 100 1018.7
20260831012811 76 53 0.0 0.0 0.00 0.88 0.88 100 1018.6
20260831012311 76 53 0.0 0.0 0.00 0.88 0.88 100 1018.7
20260831011811 76 53 0.0 0.0 0.00 0.88 0.88 100 1018.8
20260831011311 76 53 0.0 0.0 0.00 0.88 0.88 100 1018.8
20260831011112 76 53 0.0 0.0 0.00 0.88 0.88 100 1018.7
20260831010811 76 53 0.0 0.0 0.00 0.88 0.88 100 1018.7
20260831010311 76 53 0.0 0.0 0.00 0.88 0.88 100 1018.5
20260831005811 76 53 0.0 0.0 0.00 0.88 0.88 100 1018.4
20260831005311 77 53 0.0 0.0 0.00 0.88 0.88 100 1018.5
20260831004812 76 53 0.0 0.0 0.00 0.88 0.88 100 1018.5
20260831004501 76 53 0.0 0.0 0.00 0.88 0.88 100 1018.3
20260831004312 76 53 0.0 0.0 0.00 0.88 0.88 100 1018.3
20260831003812 77 53 0.0 0.0 0.00 0.88 0.88 100 1018.2
20260831003312 76 53 0.0 0.0 0.01 0.88 0.88 100 1018.1
20260831003147 77 53 0.0 0.0 0.01 0.88 0.88 100 1018.2
20260831002812 77 53 0.0 0.0 0.01 0.88 0.88 100 1018.2
20260831002312 77 53 0.0 0.0 0.01 0.88 0.88 100 1018.2
20260831001812 77 53 0.0 0.0 0.01 0.88 0.88 100 1018.2
20260831001312 77 53 0.0 0.0 0.01 0.88 0.88 100 1018.1
20260831001214 77 53 0.0 0.0 0.01 0.88 0.88 100 1018.1
20260831000812 77 53 0.0 0.0 0.01 0.88 0.88 100 1018.1
20260831000312 77 53 0.0 3.5 0.01 0.89 0.88 100 1018.1
20260830235812 77 4 0.0 0.0 0.01 0.89 0.88 100 1018.0
20260830235312 77 4 0.0 0.0 0.01 0.89 0.88 100 1018.0
20260830234812 77 60 0.0 0.0 0.01 0.89 0.88 100 1018.1
20260830234312 77 60 0.0 0.0 0.01 0.89 0.88 100 1018.0
20260830234138 77 60 0.0 0.0 0.01 0.89 0.88 100 1017.9
20260830233812 77 60 0.0 0.0 0.01 0.89 0.88 100 1017.9
20260830233312 77 60 0.0 0.0 0.00 0.88 0.87 100 1017.8
20260830233209 77 60 0.0 0.0 0.00 0.88 0.87 100 1017.8
20260830232812 77 60 0.0 0.0 0.00 0.88 0.87 100 1017.8
20260830232312 77 60 0.0 0.0 0.00 0.88 0.87 100 1017.7
20260830231812 77 60 0.0 1.7 0.00 0.88 0.87 100 1017.7
20260830231312 77 60 0.9 1.7 0.00 0.88 0.87 100 1017.6
20260830230812 77 146 0.0 0.0 0.00 0.88 0.87 100 1017.7
20260830230312 78 146 0.0 0.0 0.00 0.88 0.87 100 1017.7
20260830230200 77 146 0.0 0.0 0.00 0.88 0.87 100 1017.7
20260830225812 77 146 0.0 0.0 0.00 0.88 0.87 100 1017.7
20260830225312 77 146 0.0 0.0 0.01 0.88 0.87 100 1017.6
20260830224812 77 146 0.0 0.0 0.01 0.88 0.87 100 1017.5
20260830224312 77 146 0.0 2.6 0.01 0.88 0.87 100 1017.4
20260830223812 77 97 0.0 0.0 0.02 0.88 0.87 100 1017.3
20260830223312 77 97 0.0 0.0 0.02 0.88 0.87 100 1017.3
20260830222812 77 97 0.0 0.0 0.02 0.88 0.87 100 1017.3
20260830222312 77 97 0.0 0.0 0.03 0.88 0.87 100 1017.2
20260830221812 77 97 0.0 0.0 0.03 0.88 0.87 100 1017.3
20260830221312 77 97 0.0 0.0 0.03 0.88 0.87 100 1017.3
20260830220812 77 97 0.0 0.0 0.04 0.88 0.87 100 1017.3
20260830220312 77 97 0.0 0.0 0.04 0.92 0.87 100 1017.2
20260830220133 78 97 0.0 0.0 0.05 0.92 0.87 100 1017.2
20260830215812 78 97 0.0 0.0 0.05 0.92 0.87 100 1017.2
20260830215312 77 97 0.0 0.0 0.04 0.91 0.86 100 1017.3
20260830214812 77 97 0.0 0.0 0.05 0.91 0.86 100 1017.4
20260830214312 78 97 0.0 0.0 0.06 0.91 0.86 100 1017.5
20260830213812 78 97 0.0 0.0 0.06 0.90 0.85 100 1017.7
20260830213312 78 97 0.0 0.0 0.07 0.90 0.85 100 1017.9
20260830212812 77 97 0.0 0.0 0.07 0.90 0.85 100 1018.0
20260830212312 77 97 0.0 0.0 0.08 0.89 0.84 100 1018.0
20260830211812 77 97 0.0 0.0 0.12 0.89 0.84 100 1018.2
20260830211312 77 97 0.0 0.0 0.18 0.89 0.84 100 1018.2
20260830210812 77 97 0.0 0.0 0.21 0.88 0.83 100 1018.2
20260830210312 77 97 0.0 3.5 0.29 1.12 0.83 100 1018.3
20260830205812 77 160 1.7 6.1 0.46 1.11 0.82 100 1018.2
20260830205312 77 132 1.7 5.2 0.61 1.11 0.82 100 1018.2
20260830204812 77 118 0.0 5.2 0.67 1.10 0.81 100 1018.2
20260830204312 77 129 0.0 0.0 0.71 1.09 0.80 100 1018.0
20260830203813 77 129 0.0 0.0 0.71 1.08 0.79 100 1017.8
20260830203313 77 129 0.0 2.6 0.70 1.07 0.78 100 1017.8
20260830203051 76 74 0.0 2.6 0.70 1.07 0.78 100 1018.0
20260830202813 76 74 0.0 2.6 0.70 1.07 0.78 100 1018.0
20260830202313 76 97 0.9 6.1 0.68 1.05 0.76 100 1018.0
20260830202110 76 127 0.9 8.7 0.71 1.01 0.72 100 1018.1
20260830201813 76 127 0.9 8.7 0.71 1.01 0.72 100 1018.1
20260830201313 76 184 4.3 9.6 0.66 0.95 0.66 100 1018.4
20260830200813 75 202 3.5 11.3 0.62 0.91 0.62 100 1018.8
20260830200313 74 185 6.1 14.8 0.54 1.64 0.54 100 1019.0
20260830195813 74 151 13.9 18.2 0.36 1.46 0.36 100 1019.0
20260830195313 75 140 12.2 21.7 0.21 1.31 0.21 100 1018.8
20260830195015 77 192 8.7 14.8 0.14 1.24 0.14 100 1018.9
20260830194813 77 192 8.7 14.8 0.14 1.24 0.14 100 1018.9
20260830194313 78 153 6.1 13.9 0.09 1.19 0.09 100 1018.7
20260830193813 79 139 5.2 13.9 0.08 1.18 0.08 100 1018.5
20260830193313 79 161 7.8 20.0 0.08 1.18 0.08 100 1018.1
20260830192813 83 101 6.1 20.9 0.08 1.18 0.08 100 1017.9
20260830192313 86 336 1.7 7.8 0.08 1.18 0.08 100 1017.5
20260830191813 87 88 0.9 7.8 0.01 1.11 0.01 100 1017.5
20260830191313 92 108 2.6 6.1 0.00 1.10 0.00 100 1017.3
20260830191136 92 146 6.1 7.8 0.00 1.10 0.00 100 1017.3
20260830190813 92 146 6.1 7.8 0.00 1.10 0.00 100 1017.3
20260830190313 94 157 3.5 3.5 0.00 1.10 0.00 100 1017.4
20260830185813 94 165 1.7 1.7 0.00 1.10 0.00 100 1017.5
20260830185313 94 170 1.7 5.2 0.00 1.10 0.00 100 1017.6
20260830184813 94 106 2.6 4.3 0.00 1.10 0.00 100 1017.6
20260830184313 92 94 3.5 6.1 0.00 1.10 0.00 100 1017.6
20260830183813 92 95 3.5 7.0 0.00 1.10 0.00 100 1017.6
20260830183313 93 181 0.0 3.5 0.00 1.10 0.00 100 1017.7
20260830182813 93 78 1.7 4.3 0.00 1.10 0.00 100 1017.7
20260830182313 94 97 0.9 4.3 0.00 1.10 0.00 100 1017.8
20260830181813 97 68 1.7 3.5 0.00 1.10 0.00 100 1017.8
20260830181313 103 241 2.6 3.5 0.00 1.10 0.00 100 1017.9
20260830180813 101 222 3.5 4.3 0.00 1.10 0.00 100 1018.0
20260830180313 109 1 0.0 1.7 0.00 1.10 0.00 100 1018.2
20260830175813 100 90 0.9 2.6 0.00 1.10 0.00 100 1018.3
20260830175313 102 178 0.0 2.6 0.00 1.10 0.00 100 1018.3
20260830174813 99 213 0.0 6.1 0.00 1.10 0.00 100 1018.6
20260830174313 108 253 4.3 5.2 0.00 1.10 0.00 100 1018.7
20260830173813 95 215 4.3 4.3 0.00 1.10 0.00 100 1018.7
20260830173313 97 172 3.5 4.3 0.00 1.10 0.00 100 1018.8
20260830172813 103 192 4.3 7.0 0.00 1.10 0.00 100 1018.7
20260830172313 115 216 4.3 6.1 0.00 1.10 0.00 100 1018.6
20260830171813 105 142 2.6 7.0 0.00 1.10 0.00 100 1018.7
20260830171313 109 164 2.6 5.2 0.00 1.10 0.00 100 1018.7
20260830170813 104 189 2.6 7.0 0.00 1.10 0.00 100 1018.8
20260830170717 112 234 3.5 7.8 0.00 1.10 0.00 100 1018.8
20260830170313 112 234 3.5 7.8 0.00 1.10 0.00 100 1018.8
20260830165813 112 112 3.5 6.1 0.00 1.10 0.00 100 1018.6
20260830165313 116 81 3.5 5.2 0.00 1.10 0.00 100 1018.8
20260830164814 113 213 2.6 6.1 0.00 1.10 0.00 100 1019.0
20260830164314 106 170 3.5 7.8 0.00 1.10 0.00 100 1019.0
20260830163814 110 136 3.5 7.0 0.00 1.10 0.00 100 1019.1
20260830163314 115 90 3.5 6.1 0.00 1.10 0.00 100 1019.1
20260830162814 117 127 2.6 7.0 0.00 1.10 0.00 100 1019.2
20260830162314 114 192 4.3 4.3 0.00 1.10 0.00 100 1019.2
20260830161814 98 95 0.9 5.2 0.00 1.10 0.00 100 1019.1
20260830161314 99 136 2.6 7.0 0.00 1.10 0.00 100 1019.1
20260830160814 101 219 5.2 6.1 0.00 1.10 0.00 100 1019.2
20260830160314 115 105 4.3 6.1 0.00 1.10 0.00 100 1019.2
20260830155814 111 156 1.7 7.0 0.00 1.10 0.00 100 1019.4
20260830155314 106 167 4.3 7.8 0.00 1.10 0.00 100 1019.5
20260830154814 110 188 1.7 5.2 0.00 1.10 0.00 100 1019.5
20260830154314 110 70 3.5 4.3 0.00 1.10 0.00 100 1019.3
20260830153814 102 170 3.5 6.1 0.00 1.10 0.00 100 1019.3
20260830153314 92 167 6.1 6.1 0.00 1.10 0.00 100 1019.3
20260830152814 92 157 1.7 7.0 0.00 1.10 0.00 100 1019.3
20260830152314 96 112 2.6 5.2 0.00 1.10 0.00 100 1019.3
20260830151814 92 142 3.5 7.8 0.00 1.10 0.00 100 1019.4
20260830151314 90 153 3.5 8.7 0.00 1.10 0.00 100 1019.5
20260830150814 92 158 5.2 9.6 0.00 1.10 0.00 100 1019.6
20260830150314 92 98 3.5 6.1 0.00 1.10 0.00 100 1019.7
20260830145814 93 163 2.6 7.0 0.00 1.10 0.00 100 1019.6
20260830145314 91 171 5.2 9.6 0.00 1.10 0.00 100 1019.6
20260830144814 93 97 4.3 8.7 0.00 1.10 0.00 100 1019.5
20260830144314 90 175 5.2 9.6 0.00 1.10 0.00 100 1019.6
20260830143814 91 98 4.3 8.7 0.00 1.10 0.00 100 1019.7
20260830143314 90 115 2.6 7.8 0.00 1.10 0.00 100 1019.7
20260830142814 92 99 5.2 7.8 0.00 1.10 0.00 100 1019.6
20260830142314 93 151 6.1 7.0 0.00 1.10 0.00 100 1019.7
20260830141814 93 98 4.3 7.0 0.00 1.10 0.00 100 1019.7
20260830141314 97 149 3.5 7.0 0.00 1.10 0.00 100 1019.7
20260830140814 99 92 6.1 6.1 0.00 1.10 0.00 100 1019.6
20260830140314 96 135 4.3 6.1 0.00 1.10 0.00 100 1019.6
20260830135814 95 125 4.3 6.1 0.00 1.10 0.00 100 1019.6
20260830135314 97 92 4.3 6.1 0.00 1.10 0.00 100 1019.6